TimeCST,TemperatureF,Dew PointF,Humidity,Sea Level PressureIn,VisibilityMPH,Wind Direction,Wind SpeedMPH,Gust SpeedMPH,PrecipitationIn,Events,Conditions,WindDirDegrees,DateUTC
12:00 AM,71,62,65,29.79,12,East,8.1,,,,,80,2013-04-18 06:00:00
12:00 AM,71.6,62.6,73,29.98,-9999.0,East,8.1,-,N/A,,Clear,80,2013-04-18 06:00:00
1:00 AM,71.6,60.8,69,29.97,-9999.0,ENE,5.8,-,N/A,,Clear,70,2013-04-18 07:00:00
2:00 AM,69.8,62.6,78,29.95,-9999.0,East,8.1,-,N/A,,Clear,80,2013-04-18 08:00:00
3:00 AM,70,62,69,29.76,12,East,8.1,,,,,80,2013-04-18 09:00:00
3:00 AM,69.8,62.6,78,29.94,-9999.0,East,8.1,-,N/A,,Clear,80,2013-04-18 09:00:00
4:00 AM,69.8,60.8,73,29.95,-9999.0,NE,6.9,-,N/A,,Clear,50,2013-04-18 10:00:00
5:00 AM,69.8,60.8,73,29.95,-9999.0,NE,6.9,-,N/A,,Clear,50,2013-04-18 11:00:00
6:00 AM,70,62,68,29.80,12,ENE,6.9,,,,Clear,60,2013-04-18 12:00:00
6:00 AM,69.8,62.6,78,29.96,-9999.0,ENE,6.9,-,N/A,,Clear,60,2013-04-18 12:00:00
7:00 AM,73.4,62.6,69,29.96,-9999.0,ENE,9.2,-,N/A,,Clear,70,2013-04-18 13:00:00
8:00 AM,77.0,60.8,57,29.97,-9999.0,ESE,11.5,26.5,N/A,,Clear,110,2013-04-18 14:00:00
9:00 AM,81,61,40,29.78,12,East,10.4,,,,Scattered Clouds,100,2013-04-18 15:00:00
9:00 AM,80.6,60.8,51,29.97,6.2,East,10.4,-,N/A,,Mostly Cloudy,100,2013-04-18 15:00:00
10:00 AM,82.4,60.8,48,29.98,6.2,East,11.5,-,N/A,,Scattered Clouds,100,2013-04-18 16:00:00
11:00 AM,84.2,62.6,48,29.97,6.2,SE,9.2,-,N/A,,Scattered Clouds,130,2013-04-18 17:00:00
12:00 PM,85,61,34,29.75,12,ESE,6.9,,,,Scattered Clouds,120,2013-04-18 18:00:00
12:00 PM,84.2,60.8,45,29.96,6.2,ESE,6.9,-,N/A,,Scattered Clouds,120,2013-04-18 18:00:00
12:30 PM,82.4,66.2,58,29.95,6.2,SW,6.9,-,N/A,,Scattered Clouds,220,2013-04-18 18:30:00
1:00 PM,80.6,66.2,61,29.94,6.2,WSW,10.4,-,N/A,Rain,Rain,240,2013-04-18 19:00:00
1:20 PM,78.8,68.0,69,29.93,6.2,SW,10.4,-,N/A,Rain,Rain,230,2013-04-18 19:20:00
2:00 PM,71.6,66.2,83,29.93,6.2,WSW,13.8,-,N/A,Rain-Thunderstorm,Thunderstorms and Rain,240,2013-04-18 20:00:00
3:00 PM,70,66,83,29.78,5,South,6.9,,,,Overcast,180,2013-04-18 21:00:00
3:00 PM,69.8,66.2,88,29.93,5.0,South,6.9,-,N/A,Rain,Light Rain,180,2013-04-18 21:00:00
4:00 PM,69.8,68.0,94,29.95,1.9,WNW,5.8,-,N/A,,Mostly Cloudy,300,2013-04-18 22:00:00
4:23 PM,69.8,68.0,94,29.94,0.9,WSW,10.4,-,N/A,,Mostly Cloudy,250,2013-04-18 22:23:00
5:00 PM,68.0,66.2,94,29.93,3.1,SW,11.5,-,N/A,,Mostly Cloudy,230,2013-04-18 23:00:00
6:00 PM,69,65,85,29.81,,NNE,5.8,,,,Mist,30,2013-04-19 00:00:00
6:00 PM,69.8,66.2,88,29.97,3.1,NNE,5.8,-,N/A,,Mostly Cloudy,30,2013-04-19 00:00:00
7:00 PM,69.8,66.2,88,29.99,6.2,ESE,2.3,-,N/A,,Mostly Cloudy,110,2013-04-19 01:00:00
8:00 PM,69.8,66.2,88,30.01,6.2,SSE,2.3,-,N/A,,Mostly Cloudy,150,2013-04-19 02:00:00
9:00 PM,70,64,75,29.84,12,East,5.8,,,,Mostly Cloudy,100,2013-04-19 03:00:00
9:00 PM,69.8,64.4,83,30.02,6.2,East,5.8,-,N/A,,Mostly Cloudy,100,2013-04-19 03:00:00
10:00 PM,71.6,62.6,73,30.03,6.2,East,10.4,-,N/A,,Mostly Cloudy,90,2013-04-19 04:00:00
11:00 PM,71.6,62.6,73,30.02,6.2,East,3.5,-,N/A,,Scattered Clouds,100,2013-04-19 05:00:00